Madisonville, KY

8:07 PM CDT on May 24, 2017 (GMT -0500)
Madisonville

Weather History for K2I0 - February, 2013

Change the Weather History Date:

Thursday, February 21, 2013

  Actual Average (KOWB) Record (KOWB)
Temperature  
Mean Temperature 31 °F -  
Max Temperature 39 °F 53 °F 69 °F (1935)
Min Temperature 23 °F 31 °F 3 °F (1963)
Degree Days  
Heating Degree Days 34    
Moisture  
Dew Point 26 °F    
Average Humidity 80    
Maximum Humidity 99    
Minimum Humidity 53    
Precipitation  
Precipitation 0.39 in - - ()
Sea Level Pressure  
Sea Level Pressure 30.12 in    
Wind  
Wind Speed 9 mph (East)    
Max Wind Speed 20 mph    
Max Gust Speed 25 mph    
Visibility 9 miles    
Events Rain , Snow    
Averages and records for this station are not official NWS values.
T = Trace of Precipitation, MM = Missing Value Source: NWS Daily Summary

Daily Weather History Graph

Daily Weather History Graph

Search for Another Location

Airport or City:

Trip Planner

Search our weather history database for the weather conditions in past years. The results will help you decide how hot, cold, wet, or windy it might be!

Date:

Astronomy

Feb. 21, 2013 Rise Set
Actual Time 6:31 AM CST 5:35 PM CST
Civil Twilight 6:04 AM CST 6:02 PM CST
Nautical Twilight 5:34 AM CST 6:32 PM CST
Astronomical Twilight 5:04 AM CST 7:02 PM CST
Moon 1:53 PM CST (2/21) 3:32 AM CST (2/21)
Length of Visible Light 11h 57m
Length of Day
11h 04m
Waxing Gibbous, 84% of the Moon is Illuminated
Feb 21
Waxing Gibbous
Feb 25
Full
Mar 4
Last Quarter
Mar 11
New
Mar 19
First Quarter

Hourly Weather History & Observations

Time (CST) Temp. Windchill Dew Point Humidity Pressure Visibility Wind Dir Wind Speed Gust Speed Precip Events Conditions
12:15 AM 25.7 °F 19.0 °F 21.7 °F 85% 30.30 in 10.0 mi NE 5.8 mph - N/A   Clear
12:35 AM 26.1 °F 18.4 °F 21.6 °F 83% 30.30 in 10.0 mi NE 6.9 mph - N/A   Clear
12:55 AM 26.6 °F 18.2 °F 21.7 °F 82% 30.29 in 10.0 mi NE 8.1 mph - N/A   Clear
1:15 AM 26.2 °F 20.7 °F 21.4 °F 82% 30.30 in 10.0 mi NE 4.6 mph - N/A   Clear
1:35 AM 25.7 °F 19.0 °F 20.8 °F 82% 30.29 in 10.0 mi NE 5.8 mph - N/A   Clear
1:55 AM 25.3 °F 18.5 °F 20.5 °F 82% 30.28 in 10.0 mi NE 5.8 mph - N/A   Clear
2:15 AM 24.8 °F 17.9 °F 21.2 °F 86% 30.27 in 10.0 mi NE 5.8 mph - N/A   Clear
2:35 AM 24.6 °F 18.8 °F 20.7 °F 85% 30.28 in 10.0 mi NE 4.6 mph - N/A   Clear
2:55 AM 24.4 °F 18.6 °F 21.0 °F 87% 30.27 in 10.0 mi NE 4.6 mph - N/A   Clear
3:15 AM 24.6 °F 20.3 °F 20.7 °F 85% 30.28 in 10.0 mi NE 3.5 mph - N/A   Clear
3:35 AM 24.4 °F 18.6 °F 21.0 °F 87% 30.28 in 10.0 mi NE 4.6 mph - N/A   Clear
3:55 AM 24.6 °F 17.7 °F 20.8 °F 86% 30.28 in 10.0 mi NE 5.8 mph - N/A   Clear
4:15 AM 23.9 °F 16.8 °F 21.0 °F 89% 30.29 in 10.0 mi NNE 5.8 mph - N/A   Clear
4:35 AM 24.6 °F 17.7 °F 21.2 °F 87% 30.29 in 10.0 mi NE 5.8 mph - N/A   Clear
4:55 AM 25.3 °F 19.7 °F 21.0 °F 84% 30.29 in 10.0 mi East 4.6 mph - N/A   Clear
5:15 AM 25.9 °F 20.3 °F 21.4 °F 83% 30.29 in 10.0 mi East 4.6 mph - N/A   Clear
5:55 AM 25.2 °F 18.3 °F 20.5 °F 82% 30.29 in 10.0 mi East 5.8 mph - N/A   Clear
6:15 AM 25.5 °F 16.9 °F 20.7 °F 82% 30.28 in 10.0 mi East 8.1 mph - N/A   Clear
6:35 AM 25.7 °F 16.4 °F 20.1 °F 79% 30.27 in 10.0 mi ENE 9.2 mph - N/A   Clear
6:55 AM 26.1 °F 16.2 °F 20.5 °F 79% 30.25 in 10.0 mi East 10.4 mph - N/A   Clear
7:15 AM 26.2 °F 17.1 °F 19.9 °F 77% 30.25 in 10.0 mi ESE 9.2 mph - N/A   Clear
7:35 AM 26.6 °F 16.8 °F 20.1 °F 77% 30.25 in 10.0 mi East 10.4 mph - N/A   Clear
7:55 AM 28.2 °F 18.3 °F 20.5 °F 73% 30.24 in 10.0 mi East 11.5 mph - N/A   Clear
8:15 AM 28.8 °F 19.5 °F 20.1 °F 70% 30.26 in 10.0 mi East 10.4 mph - N/A   Clear
8:35 AM 29.8 °F 20.3 °F 20.8 °F 69% 30.26 in 10.0 mi East 11.5 mph - N/A   Clear
8:55 AM 30.4 °F 22.2 °F 20.7 °F 67% 30.25 in 10.0 mi East 9.2 mph - N/A   Clear
9:15 AM 32.2 °F 22.3 °F 21.2 °F 64% 30.24 in 10.0 mi ESE 13.8 mph - N/A   Clear
9:35 AM 32.4 °F 23.0 °F 20.8 °F 63% 30.24 in 10.0 mi East 12.7 mph - N/A   Clear
9:55 AM 32.9 °F 24.1 °F 21.0 °F 62% 30.23 in 10.0 mi East 11.5 mph - N/A   Clear
10:15 AM 34.2 °F 23.6 °F 22.5 °F 62% 30.20 in 10.0 mi East 17.3 mph 20.7 mph N/A   Scattered Clouds
10:35 AM 34.9 °F 25.3 °F 22.1 °F 60% 30.20 in 10.0 mi East 15.0 mph - N/A   Scattered Clouds
10:55 AM 36.1 °F 27.3 °F 23.4 °F 60% 30.19 in 10.0 mi ENE 13.8 mph - N/A   Mostly Cloudy
11:15 AM 36.3 °F 27.1 °F 24.8 °F 63% 30.18 in 10.0 mi East 15.0 mph - N/A   Scattered Clouds
11:35 AM 36.3 °F 28.9 °F 24.4 °F 62% 30.19 in 10.0 mi ENE 10.4 mph - N/A   Mostly Cloudy
11:55 AM 35.6 °F 27.1 °F 24.3 °F 63% 30.16 in 10.0 mi ENE 12.7 mph - N/A   Overcast
12:15 PM 36.1 °F 26.9 °F 23.9 °F 61% 30.11 in 10.0 mi ENE 15.0 mph - N/A   Overcast
12:35 PM 37.4 °F 27.8 °F 24.4 °F 60% 30.09 in 10.0 mi East 17.3 mph - N/A   Overcast
12:55 PM 37.4 °F 27.2 °F 23.5 °F 57% 30.02 in 10.0 mi East 19.6 mph 25.3 mph N/A   Overcast
1:15 PM 38.3 °F 30.1 °F 23.9 °F 56% 30.03 in 10.0 mi ESE 13.8 mph - N/A   Scattered Clouds
1:35 PM 39.0 °F 31.4 °F 23.0 °F 53% 30.01 in 10.0 mi ESE 12.7 mph 21.9 mph N/A   Mostly Cloudy
1:55 PM 38.7 °F 29.5 °F 23.5 °F 55% 30.00 in 10.0 mi East 17.3 mph - N/A   Overcast
2:15 PM 38.8 °F 31.6 °F 23.5 °F 54% 29.99 in 10.0 mi ESE 11.5 mph - N/A   Overcast
2:35 PM 38.3 °F 33.9 °F 26.2 °F 62% 30.01 in 10.0 mi ESE 5.8 mph - N/A Rain Light Rain
2:55 PM 37.2 °F 31.2 °F 28.6 °F 71% 30.03 in 7.0 mi ENE 8.1 mph - N/A Rain Light Rain
3:15 PM 36.5 °F 31.0 °F 31.5 °F 82% 30.07 in 5.0 mi North 6.9 mph - 0.01 in Rain Light Rain
3:35 PM 35.6 °F 28.6 °F 32.0 °F 87% 30.08 in 4.0 mi NNE 9.2 mph - 0.02 in Rain Rain
3:55 PM 35.2 °F 28.1 °F 31.8 °F 87% 30.08 in 5.0 mi NNE 9.2 mph - 0.03 in Rain Light Rain
4:15 PM 34.7 °F 26.4 °F 32.0 °F 90% 30.07 in 5.0 mi NE 11.5 mph - 0.01 in   Overcast
4:35 PM 34.3 °F 27.0 °F 32.0 °F 91% 30.06 in 4.0 mi NE 9.2 mph - 0.02 in   Overcast
4:55 PM 34.2 °F 25.2 °F 32.0 °F 92% 30.07 in 5.0 mi ENE 12.7 mph - 0.04 in   Overcast
5:15 PM 33.8 °F 24.8 °F 32.2 °F 94% 30.04 in 1.8 mi ENE 12.7 mph - 0.06 in Snow Light Snow
5:35 PM 33.4 °F 23.9 °F 32.2 °F 95% 29.99 in 5.0 mi East 13.8 mph 19.6 mph 0.12 in Snow Light Snow
5:55 PM 33.8 °F 23.2 °F 32.2 °F 94% 29.96 in 10.0 mi ENE 17.3 mph 21.9 mph 0.12 in   Overcast
6:15 PM 34.2 °F 24.0 °F 32.2 °F 92% 29.96 in 10.0 mi East 16.1 mph - 0.01 in   Overcast
6:35 PM 34.3 °F 25.5 °F 32.4 °F 92% 29.95 in 5.0 mi East 12.7 mph - 0.03 in Snow Light Snow
6:55 PM 34.7 °F 26.4 °F 32.5 °F 92% 29.94 in 7.0 mi East 11.5 mph - 0.04 in   Overcast
7:15 PM 34.9 °F 29.9 °F 32.9 °F 92% 29.96 in 10.0 mi ESE 5.8 mph - 0.01 in   Overcast
8:15 PM 34.9 °F 27.1 °F 34.0 °F 97% 29.93 in 3.0 mi ESE 10.4 mph 17.3 mph 0.03 in Snow Light Snow
8:35 PM 35.1 °F 26.9 °F 34.3 °F 97% 29.92 in 7.0 mi ESE 11.5 mph - 0.06 in Rain Light Rain
8:55 PM 35.6 °F 28.0 °F 34.7 °F 97% 29.91 in 7.0 mi ESE 10.4 mph - 0.08 in Rain Light Rain
9:15 PM 36.1 °F 28.7 °F 35.4 °F 97% 29.91 in 10.0 mi SE 10.4 mph - N/A   Overcast
9:35 PM 36.7 °F 29.4 °F 36.0 °F 97% 29.90 in 7.0 mi ESE 10.4 mph 16.1 mph N/A Rain Rain
9:55 PM 37.4 °F 33.8 °F 36.5 °F 97% 29.92 in 10.0 mi East 4.6 mph - N/A Rain Light Rain
10:15 PM 37.6 °F 31.0 °F 36.7 °F 97% 29.92 in 2.0 mi ESE 9.2 mph - 0.06 in Rain Rain
10:35 PM 38.3 °F 32.5 °F 37.4 °F 97% 29.90 in 10.0 mi ESE 8.1 mph - 0.07 in Rain Light Rain
10:55 PM 38.3 °F 31.9 °F 37.4 °F 97% 29.88 in 7.0 mi ESE 9.2 mph - 0.07 in Rain Light Rain
11:15 PM 38.3 °F 32.5 °F 37.4 °F 97% 29.88 in 10.0 mi ESE 8.1 mph - N/A   Overcast
11:35 PM 38.3 °F 33.9 °F 37.8 °F 98% 29.87 in 4.0 mi SE 5.8 mph - N/A   Drizzle
11:55 PM 38.7 °F 34.3 °F 38.3 °F 99% 29.85 in 3.0 mi SE 5.8 mph - N/A   Drizzle